map of PSS home
PSS - Airport
Location
City:  Posadas, Misiones, Argentina
Name:Libertador General José de San Martín Airport
ICAO:SARP
IATA:PSS

Details
Type:Airport (Aerodrome, Airfield)
Latitude:27°23'09"S (-27.385838)
Longitude:55°58'15"W (-55.970727)
Datum:WGS 1984
Elevation:430 ft (131 m)
Variation:14.78°W (WMM2015v2 magnetic declination)
-0.17° annual change
Runways:1
Longest:7406 × 98 ft (2257 × 30 m), paved

Time
Time Zone:UTC-3
Local Time:

Weather
METAR:SARP 041400Z 14007KT CAVOK 25/16 Q1018
TAF:SARP 041100Z 0412/0512 16010KT CAVOK TX30/0418Z TN20/0509Z PROB30
TEMPO 0416/0421 9999 SCT035 FEW045TCU

Related Locations
Nearby:
Farthest:HYN: 12264 mi / 19737 km
Huangyan [Luqiao], 33, CN

Find:

   beyond  
but within

Other Information
Maps:
NOTAMs:
Links:
Sources:

  
  • flag of Argentina
  • flag of Misiones
  

Sectional Chart

Flight Planning
at skyvector.com

Satellite Image

Google Maps Satellite view

 

Copyright © 2004-2019 Karl L. Swartz. All rights reserved.
The Great Circle Mapper name and logo are trademarks of the Great Circle Mapper.
All other trademarks mentioned herein belong to their respective owners.
Please see credits for attibutions and further copyright information.

  Follow gcmap on Facebook Follow gcmap on Twitter GCmap on LinkedIn

hCard Microformat

Geo Microformat